Location: Schommer Observatory
(40.5200°N, 74.4500°W)
Time: 12:05:30
(UTC-05:00)

N. Korean satellite - Pass Details

Date: 08 October 2017
Orbit: 461 x 513 km, 97.2° (Epoch: 12 December)

Event Time Altitude Azimuth Distance (km) Brightness Sun altitude
Rises 20:12:27 0° 215° (SW) 2,573 10.6 -20.6°
Reaches altitude 10° 20:16:09 10° 255° (WSW) 1,683 10.2 -21.3°
Maximum altitude 20:17:01 11° 269° (W) 1,637 10.3 -21.5°
Drops below altitude 10° 20:17:54 10° 283° (WNW) 1,679 10.5 -21.6°
Sets 20:21:34 0° 323° (NW) 2,551 11.0 -22.3°
